KE4EST Weather Reports


Display with metric or nautical units.
time (UTC)temp
F
wind
direction
speed
MPH
gust
MPH
rain 1hr
in
rain 24hr
in
rain mn
in
humidity
%
barometer
mb
20260505124614 52 88 0.0 0.0 0.00 0.00 0.00 90 1016.3
20260505124110 51 89 0.0 0.0 0.00 0.00 0.00 92 1016.3
20260505123606 51 89 0.0 0.0 0.00 0.00 0.00 94 1016.5
20260505123103 50 90 0.0 0.0 0.00 0.00 0.00 96 1016.3
20260505122559 50 90 0.0 0.0 0.00 0.00 0.00 97 1016.1
20260505122056 49 90 0.0 0.0 0.00 0.00 0.00 97 1016.2
20260505121553 48 90 0.0 0.0 0.00 0.00 0.00 97 1016.2
20260505121050 48 90 0.0 0.0 0.00 0.00 0.00 98 1016.2
20260505120546 48 90 0.0 0.0 0.00 0.00 0.00 98 1016.1
20260505120042 47 90 0.0 0.0 0.00 0.00 0.00 98 1016.0
20260505115537 47 90 0.0 0.0 0.00 0.00 0.00 98 1016.1
20260505115034 46 90 0.0 0.0 0.00 0.00 0.00 99 1016.2
20260505114531 46 90 0.0 0.0 0.00 0.00 0.00 99 1016.2
20260505114027 46 90 0.0 0.0 0.00 0.00 0.00 98 1016.0
20260505113524 46 90 0.0 0.0 0.00 0.00 0.00 98 1015.6
20260505113020 45 92 0.0 0.0 0.00 0.00 0.00 98 1015.6
20260505112516 45 84 0.0 0.0 0.00 0.00 0.00 98 1015.5
20260505112015 45 88 0.0 0.0 0.00 0.00 0.00 98 1015.7
20260505111508 45 88 0.0 0.0 0.00 0.00 0.00 98 1015.6
20260505111005 45 89 0.0 0.0 0.00 0.00 0.00 98 1015.5
20260505110502 45 82 0.0 0.0 0.00 0.00 0.00 98 1015.4
20260505101933 45 89 0.0 0.0 0.00 0.00 0.00 98 1015.5
20260505101427 45 89 0.0 0.0 0.00 0.00 0.00 98 1015.6
20260505100923 45 90 0.0 0.0 0.00 0.00 0.00 98 1015.7
20260505100420 45 90 0.0 0.0 0.00 0.00 0.00 98 1015.2
20260505095916 45 90 0.0 0.0 0.00 0.00 0.00 98 1015.5
20260505095413 44 90 0.0 0.0 0.00 0.00 0.00 98 1015.4
20260505094909 44 90 0.0 0.0 0.00 0.00 0.00 98 1015.3
20260505094406 44 90 0.0 0.0 0.00 0.00 0.00 98 1015.3
20260505093902 45 90 0.0 0.0 0.00 0.00 0.00 98 1015.4
20260505093359 45 90 0.0 0.0 0.00 0.00 0.00 98 1015.2
20260505092856 44 90 0.0 0.0 0.00 0.00 0.00 98 1015.3
20260505092354 44 90 0.0 0.0 0.00 0.00 0.00 98 1015.3
20260505091851 44 90 0.0 0.0 0.00 0.00 0.00 98 1015.3
20260505091349 45 91 0.0 0.0 0.00 0.00 0.00 98 1015.3
20260505090847 45 91 0.0 0.0 0.00 0.00 0.00 98 1015.4
20260505090345 45 92 0.0 0.0 0.00 0.00 0.00 98 1015.5
20260505085842 45 96 0.0 0.0 0.00 0.00 0.00 98 1015.5
20260505085340 45 84 0.0 0.0 0.00 0.00 0.00 98 1015.7
20260505084837 45 84 0.0 0.0 0.00 0.00 0.00 98 1015.4
20260505084336 45 83 0.0 0.0 0.00 0.00 0.00 98 1015.5
20260505083833 45 88 0.0 0.0 0.00 0.00 0.00 98 1015.4
20260505083330 45 88 0.0 0.0 0.00 0.00 0.00 98 1015.6
20260505082826 45 88 0.0 0.0 0.00 0.00 0.00 98 1015.4
20260505082323 45 88 0.0 0.0 0.00 0.00 0.00 98 1015.4
20260505081820 45 88 0.0 0.0 0.00 0.00 0.00 98 1015.4
20260505081316 46 88 0.0 0.0 0.00 0.00 0.00 97 1015.5
20260505080813 46 88 0.0 0.0 0.00 0.00 0.00 97 1015.5
20260505080309 46 88 0.0 0.0 0.00 0.00 0.00 97 1015.5
20260505075804 46 88 0.0 0.0 0.00 0.00 0.00 97 1015.6
20260505075304 46 88 0.0 0.0 0.00 0.00 0.00 97 1015.7
20260505074759 46 88 0.0 0.0 0.00 0.00 0.00 97 1015.5
20260505074256 46 88 0.0 0.0 0.00 0.00 0.00 97 1015.4
20260505073753 46 88 0.0 0.0 0.00 0.00 0.00 97 1015.7
20260505073251 46 88 0.0 0.0 0.00 0.00 0.00 97 1015.5
20260505072748 46 95 0.0 0.0 0.00 0.00 0.00 97 1015.4
20260505072244 46 95 0.0 0.0 0.00 0.00 0.00 97 1015.7
20260505071740 46 86 0.0 0.0 0.00 0.00 0.00 97 1015.6
20260505071237 46 86 0.0 0.0 0.00 0.00 0.00 96 1015.6
20260505070734 47 86 0.0 0.0 0.00 0.00 0.00 96 1015.5
20260505070230 47 86 0.0 0.0 0.00 0.00 0.00 96 1015.6
20260505065726 47 86 0.0 0.0 0.00 0.00 0.00 96 1015.6
20260505065223 47 85 0.0 0.0 0.00 0.00 0.00 96 1015.5
20260505064720 47 84 0.0 0.0 0.00 0.00 0.00 96 1015.6
20260505064218 47 83 0.0 0.0 0.00 0.00 0.00 96 1015.4
20260505063715 47 85 0.0 0.0 0.00 0.00 0.00 96 1015.6
20260505063211 47 85 0.0 0.0 0.00 0.00 0.00 95 1015.5
20260505062707 48 85 0.0 0.0 0.00 0.00 0.00 95 1015.4
20260505062206 48 85 0.0 0.0 0.00 0.00 0.00 95 1015.6
20260505061702 48 85 0.0 0.0 0.00 0.00 0.00 95 1015.5
20260505061200 48 85 0.0 0.0 0.00 0.00 0.00 95 1015.7
20260505060657 48 85 0.0 0.0 0.00 0.00 0.00 94 1015.7
20260505060154 48 85 0.0 0.0 0.00 0.00 0.00 94 1015.6
20260505055649 48 83 0.0 0.0 0.00 0.00 0.00 94 1015.4
20260505055146 49 83 0.0 0.0 0.00 0.00 0.00 94 1015.6
20260505054643 49 83 0.0 0.0 0.00 0.00 0.00 94 1015.8
20260505054141 49 86 0.0 0.0 0.00 0.00 0.00 94 1015.4
20260505053639 49 86 0.0 0.0 0.00 0.00 0.00 94 1015.6
20260505053135 49 88 0.0 0.0 0.00 0.00 0.00 94 1015.7
20260505052632 49 85 0.0 0.0 0.00 0.00 0.00 93 1015.8
20260505052130 49 85 0.0 0.0 0.00 0.00 0.00 93 1015.8
20260505051626 50 85 0.0 0.0 0.00 0.00 0.00 92 1015.5
20260505051125 50 85 0.0 0.0 0.00 0.00 0.00 92 1015.6
20260505050622 50 85 0.0 0.0 0.00 0.00 0.00 92 1015.7
20260505050120 50 86 0.0 0.0 0.00 0.00 0.00 92 1015.6
20260505041550 52 86 0.0 0.0 0.00 0.00 0.00 89 1015.8
20260505041047 52 85 0.0 0.0 0.00 0.00 0.00 89 1015.6
20260505040544 52 85 0.0 0.0 0.00 0.00 0.00 89 1015.6
20260505040042 52 86 0.0 0.0 0.00 0.00 0.00 88 1015.6
20260505035537 52 85 0.0 0.0 0.00 0.00 0.00 88 1015.5
20260505035034 52 86 0.0 0.0 0.00 0.00 0.00 87 1015.6
20260505034531 53 86 0.0 0.0 0.00 0.00 0.00 87 1015.5
20260505034028 53 86 0.0 0.0 0.00 0.00 0.00 87 1015.5
20260505033525 53 86 0.0 0.0 0.00 0.00 0.00 87 1015.7
20260505033023 53 86 0.0 0.0 0.00 0.00 0.00 87 1015.5
20260505032520 53 86 0.0 0.0 0.00 0.00 0.00 86 1015.5
20260505032017 53 87 0.0 0.0 0.00 0.00 0.00 87 1015.6
20260505031514 53 88 0.0 0.0 0.00 0.00 0.00 86 1015.6
20260505031010 53 87 0.0 0.0 0.00 0.00 0.00 86 1015.5
20260505030507 54 87 0.0 0.0 0.00 0.00 0.00 85 1015.6
20260505030003 54 87 0.0 0.0 0.00 0.00 0.00 83 1015.5
20260505025459 55 87 0.0 0.0 0.00 0.00 0.00 83 1015.5
20260505024959 55 87 0.0 0.0 0.00 0.00 0.00 83 1015.8
20260505024455 55 87 0.0 0.0 0.00 0.00 0.00 82 1015.8
20260505023952 55 87 0.0 0.0 0.00 0.00 0.00 81 1015.5
20260505023449 55 87 0.0 0.0 0.00 0.00 0.00 80 1015.6
20260505022946 55 87 0.0 0.0 0.00 0.00 0.00 81 1015.5
20260505022444 56 87 0.0 0.0 0.00 0.00 0.00 79 1015.4
20260505021941 56 87 0.0 0.0 0.00 0.00 0.00 79 1015.5
20260505021437 56 87 0.0 0.0 0.00 0.00 0.00 79 1015.5
20260505020933 57 87 0.0 0.0 0.00 0.00 0.00 78 1015.5
20260505020428 57 87 0.0 0.0 0.00 0.00 0.00 77 1015.4
20260505015925 57 87 0.0 0.0 0.00 0.00 0.00 77 1015.4
20260505015423 57 90 0.0 0.0 0.00 0.00 0.00 76 1015.5
20260505014920 57 86 0.0 0.0 0.00 0.00 0.00 76 1015.3
20260505014416 58 85 0.0 0.0 0.00 0.00 0.00 74 1015.2
20260505013914 58 84 0.0 0.0 0.00 0.00 0.00 74 1015.2
20260505013410 59 87 0.0 0.0 0.00 0.00 0.00 73 1015.3
20260505012909 59 86 0.0 0.0 0.00 0.00 0.00 72 1015.0
20260505012406 59 87 0.0 0.0 0.00 0.00 0.00 71 1015.1
20260505011902 60 87 0.0 0.0 0.00 0.00 0.00 70 1014.9
20260505011359 60 88 0.0 0.0 0.00 0.00 0.00 69 1015.1
20260505010855 61 90 0.0 0.0 0.00 0.00 0.00 67 1015.0
20260505010351 61 90 0.0 0.0 0.00 0.00 0.00 66 1014.9
20260505005847 62 89 0.0 0.0 0.00 0.00 0.00 65 1015.0
20260505005344 62 89 0.0 0.0 0.00 0.00 0.00 64 1014.9
20260505004842 63 90 0.0 0.0 0.00 0.00 0.00 63 1015.0
20260505004338 64 90 0.0 0.0 0.00 0.00 0.00 62 1014.8
20260505003836 64 90 0.0 0.0 0.00 0.00 0.00 61 1014.8
20260505003333 65 94 0.0 0.0 0.00 0.00 0.00 57 1014.7
20260505002828 66 96 0.0 0.0 0.00 0.00 0.00 56 1014.5
20260505002326 66 97 0.0 0.0 0.00 0.00 0.00 54 1014.6
20260505001824 67 104 0.0 0.0 0.00 0.00 0.00 53 1014.5
20260505001321 67 100 0.0 0.0 0.00 0.00 0.00 53 1014.5
20260505000818 68 103 0.0 0.0 0.00 0.00 0.00 52 1014.7
20260505000316 68 96 0.0 0.0 0.00 0.00 0.00 51 1014.5
20260504235812 69 101 0.0 0.0 0.00 0.00 0.00 50 1014.7
20260504235309 69 100 0.0 0.0 0.00 0.00 0.00 49 1014.5
20260504234806 69 126 1.0 1.0 0.00 0.00 0.00 48 1014.5
20260504234304 70 122 0.0 0.0 0.00 0.00 0.00 48 1014.5
20260504233800 70 101 1.0 1.0 0.00 0.00 0.00 47 1014.4
20260504233255 71 124 0.0 1.0 0.00 0.00 0.00 46 1014.4
20260504232752 71 149 1.0 2.0 0.00 0.00 0.00 46 1014.4
20260504232249 71 99 0.0 0.0 0.00 0.00 0.00 47 1014.3
20260504231746 71 99 0.0 0.0 0.00 0.00 0.00 46 1014.4
20260504231243 71 120 1.0 1.0 0.00 0.00 0.00 46 1014.4
20260504230739 71 126 0.0 1.0 0.00 0.00 0.00 45 1014.4
20260504230237 71 102 0.0 0.0 0.00 0.00 0.00 45 1014.3
20260504225736 71 107 0.0 0.0 0.00 0.00 0.00 44 1014.3
20260504225232 71 118 0.0 1.0 0.00 0.00 0.00 43 1014.1
20260504224729 71 111 1.0 1.0 0.00 0.00 0.00 42 1014.2
20260504224226 71 100 0.0 0.0 0.00 0.00 0.00 40 1014.3
20260504223722 71 109 0.0 1.0 0.00 0.00 0.00 39 1014.4
20260504223218 72 98 0.0 0.0 0.00 0.00 0.00 38 1014.3
20260504222715 72 127 1.0 1.0 0.00 0.00 0.00 38 1014.4
20260504222212 72 146 1.0 1.0 0.00 0.00 0.00 37 1014.2
20260504221709 73 117 0.0 1.0 0.00 0.00 0.00 35 1014.3
20260504221206 73 99 1.0 1.0 0.00 0.00 0.00 35 1014.2
20260504220703 74 137 1.0 1.0 0.00 0.00 0.00 36 1014.4
20260504220201 74 154 1.0 2.0 0.00 0.00 0.00 36 1014.3
20260504215656 74 95 0.0 0.0 0.00 0.00 0.00 36 1014.3
20260504215154 75 197 2.0 3.0 0.00 0.00 0.00 34 1014.2
20260504214649 75 99 0.0 0.0 0.00 0.00 0.00 38 1014.1
20260504214146 74 163 2.0 2.0 0.00 0.00 0.00 37 1014.2
20260504213643 75 101 0.0 0.0 0.00 0.00 0.00 39 1014.1
20260504213140 75 120 1.0 1.0 0.00 0.00 0.00 39 1013.9
20260504212636 75 110 0.0 0.0 0.00 0.00 0.00 41 1013.8
20260504212133 75 97 0.0 0.0 0.00 0.00 0.00 40 1013.9
20260504211631 74 99 0.0 0.0 0.00 0.00 0.00 41 1014.1
20260504211127 75 124 1.0 1.0 0.00 0.00 0.00 38 1014.2
20260504210625 76 103 0.0 0.0 0.00 0.00 0.00 39 1014.2
20260504210121 76 105 1.0 1.0 0.00 0.00 0.00 37 1014.1
20260504205618 76 122 1.0 1.0 0.00 0.00 0.00 40 1014.2
20260504205116 76 97 0.0 1.0 0.00 0.00 0.00 38 1014.4
20260504204614 76 93 0.0 0.0 0.00 0.00 0.00 42 1014.1
20260504204113 76 113 0.0 1.0 0.00 0.00 0.00 38 1014.2
20260504203611 76 80 1.0 1.0 0.00 0.00 0.00 37 1014.3
20260504203108 76 127 1.0 1.0 0.00 0.00 0.00 38 1014.2
20260504202603 76 91 1.0 1.0 0.00 0.00 0.00 37 1014.1
20260504202100 76 117 1.0 1.0 0.00 0.00 0.00 40 1014.4
20260504201557 77 141 1.0 1.0 0.00 0.00 0.00 38 1014.4
20260504201055 77 92 0.0 0.0 0.00 0.00 0.00 38 1014.4
20260504200550 76 131 2.0 2.0 0.00 0.00 0.00 38 1014.5
20260504200048 77 135 2.0 3.0 0.00 0.00 0.00 39 1014.7
20260504195544 77 100 0.0 1.0 0.00 0.00 0.00 38 1014.6
20260504195040 79 99 0.0 0.0 0.00 0.00 0.00 37 1014.8
20260504194537 80 96 0.0 0.0 0.00 0.00 0.00 38 1014.7
20260504194032 80 63 1.0 1.0 0.00 0.00 0.00 35 1014.8
20260504193529 78 96 0.0 0.0 0.00 0.00 0.00 39 1014.9
20260504193028 76 75 0.0 0.0 0.00 0.00 0.00 39 1015.0
20260504192526 77 87 1.0 1.0 0.00 0.00 0.00 43 1014.9
20260504192024 76 73 0.0 1.0 0.00 0.00 0.00 39 1015.1
20260504191521 78 58 1.0 2.0 0.00 0.00 0.00 36 1015.1
20260504191017 79 112 0.0 1.0 0.00 0.00 0.00 40 1015.1
20260504190514 78 87 0.0 0.0 0.00 0.00 0.00 37 1015.2
20260504190010 78 70 0.0 1.0 0.00 0.00 0.00 37 1015.3
20260504185507 77 83 0.0 1.0 0.00 0.00 0.00 38 1015.3
20260504185004 78 142 1.0 2.0 0.00 0.00 0.00 40 1015.4
20260504184459 77 85 0.0 0.0 0.00 0.00 0.00 40 1015.5
20260504183955 76 97 0.0 0.0 0.00 0.00 0.00 43 1015.6
20260504183452 76 42 2.0 2.0 0.00 0.00 0.00 41 1015.6
20260504182950 75 93 0.0 1.0 0.00 0.00 0.00 41 1015.5
20260504182447 75 83 0.0 0.0 0.00 0.00 0.00 40 1015.7
20260504181944 75 163 1.0 2.0 0.00 0.00 0.00 42 1015.7
20260504181441 73 109 1.0 1.0 0.00 0.00 0.00 45 1016.2
20260504180939 73 25 1.0 1.0 0.00 0.00 0.00 43 1016.1
20260504180438 72 90 0.0 0.0 0.00 0.00 0.00 44 1016.2
20260504175936 72 63 1.0 2.0 0.00 0.00 0.00 45 1016.0
20260504175433 73 80 0.0 0.0 0.00 0.00 0.00 45 1016.4
20260504174930 72 45 2.0 2.0 0.00 0.00 0.00 44 1016.3
20260504174428 73 78 1.0 1.0 0.00 0.00 0.00 45 1016.3
20260504173925 73 67 0.0 1.0 0.00 0.00 0.00 45 1016.3
20260504173421 72 96 0.0 1.0 0.00 0.00 0.00 46 1016.3
20260504172919 72 190 1.0 2.0 0.00 0.00 0.00 47 1016.6
20260504172415 72 75 0.0 1.0 0.00 0.00 0.00 47 1016.5
20260504171911 72 160 1.0 1.0 0.00 0.00 0.00 45 1016.5
20260504171409 72 80 0.0 0.0 0.00 0.00 0.00 45 1016.5
20260504170905 71 88 0.0 1.0 0.00 0.00 0.00 46 1016.6
20260504170402 72 135 0.0 1.0 0.00 0.00 0.00 45 1016.7
20260504160321 67 321 1.0 2.0 0.00 0.00 0.00 49 1017.7
20260504150745 62 83 0.0 0.0 0.00 0.00 0.00 53 1018.5
20260504150242 62 73 0.0 1.0 0.00 0.00 0.00 52 1018.3
20260504141212 57 85 0.0 0.0 0.00 0.00 0.00 67 1018.8
20260504140709 56 87 0.0 0.0 0.00 0.00 0.00 70 1018.7
20260504140204 56 87 0.0 0.0 0.00 0.00 0.00 69 1018.8
20260504130632 45 93 0.0 0.0 0.00 0.00 0.00 93 1019.1
20260504130129 44 84 0.0 0.0 0.00 0.00 0.00 95 1019.1